TimeCDT,TemperatureF,Dew PointF,Humidity,Sea Level PressureIn,VisibilityMPH,Wind Direction,Wind SpeedMPH,Gust SpeedMPH,PrecipitationIn,Events,Conditions,WindDirDegrees,DateUTC
12:53 AM,45.0,43.0,93,29.67,10.0,Calm,Calm,-,N/A,,Clear,0,2013-04-08 05:53:00
1:53 AM,43.0,42.1,97,29.67,10.0,Calm,Calm,-,N/A,,Clear,0,2013-04-08 06:53:00
2:53 AM,43.0,41.0,93,29.65,9.0,ENE,3.5,-,N/A,,Clear,60,2013-04-08 07:53:00
3:53 AM,42.1,41.0,96,29.64,5.0,Calm,Calm,-,N/A,,Clear,0,2013-04-08 08:53:00
4:45 AM,37.4,37.4,100,29.64,1.8,East,4.6,-,N/A,,Clear,90,2013-04-08 09:45:00
4:53 AM,37.9,37.0,97,29.64,1.5,NNE,3.5,-,N/A,,Clear,30,2013-04-08 09:53:00
5:25 AM,37.4,35.6,93,29.64,0.2,ENE,3.5,-,N/A,Fog,Fog,60,2013-04-08 10:25:00
5:53 AM,37.9,37.0,97,29.63,0.2,NNE,3.5,-,N/A,Fog,Fog,30,2013-04-08 10:53:00
6:53 AM,36.0,36.0,100,29.63,0.2,Calm,Calm,-,N/A,Fog,Fog,0,2013-04-08 11:53:00
7:53 AM,37.0,36.0,96,29.65,0.2,Calm,Calm,-,N/A,Fog,Fog,0,2013-04-08 12:53:00
8:53 AM,39.0,39.0,100,29.68,0.2,WSW,5.8,-,N/A,Fog,Fog,240,2013-04-08 13:53:00
9:23 AM,42.8,42.8,100,29.66,2.0,Calm,Calm,-,N/A,,Mostly Cloudy,0,2013-04-08 14:23:00
9:30 AM,42.8,42.8,100,29.66,3.0,Calm,Calm,-,N/A,,Scattered Clouds,0,2013-04-08 14:30:00
9:53 AM,45.0,44.1,97,29.66,6.0,Calm,Calm,-,N/A,,Clear,0,2013-04-08 14:53:00
10:53 AM,53.1,46.9,80,29.65,10.0,ESE,6.9,-,N/A,,Unknown,110,2013-04-08 15:53:00
11:53 AM,61.0,48.0,62,29.63,10.0,East,10.4,-,N/A,,Clear,100,2013-04-08 16:53:00
12:53 PM,66.9,48.0,51,29.61,10.0,ESE,13.8,20.7,N/A,,Clear,110,2013-04-08 17:53:00
1:53 PM,69.1,51.1,53,29.58,10.0,ESE,15.0,20.7,N/A,,Clear,110,2013-04-08 18:53:00
2:53 PM,68.0,53.1,59,29.58,10.0,SE,15.0,-,N/A,,Partly Cloudy,130,2013-04-08 19:53:00
3:13 PM,64.4,53.6,68,29.61,10.0,ESE,16.1,24.2,N/A,,Mostly Cloudy,110,2013-04-08 20:13:00
3:53 PM,63.0,54.0,72,29.58,10.0,SE,18.4,23.0,N/A,,Overcast,140,2013-04-08 20:53:00
4:06 PM,62.6,53.6,72,29.59,10.0,SE,15.0,-,N/A,,Unknown,130,2013-04-08 21:06:00
4:36 PM,64.4,53.6,68,29.57,10.0,ESE,13.8,23.0,N/A,,Overcast,120,2013-04-08 21:36:00
4:53 PM,64.0,53.1,67,29.56,10.0,SE,17.3,-,N/A,,Overcast,130,2013-04-08 21:53:00
5:53 PM,66.0,55.0,68,29.52,10.0,ESE,15.0,-,N/A,,Mostly Cloudy,110,2013-04-08 22:53:00
6:10 PM,66.2,55.4,68,29.53,10.0,East,16.1,24.2,N/A,,Mostly Cloudy,100,2013-04-08 23:10:00
6:28 PM,66.2,55.4,68,29.52,10.0,East,21.9,28.8,N/A,,Mostly Cloudy,90,2013-04-08 23:28:00
6:36 PM,66.2,55.4,68,29.52,9.0,East,19.6,-,N/A,,Mostly Cloudy,100,2013-04-08 23:36:00
6:53 PM,64.9,55.9,73,29.52,9.0,East,19.6,-,N/A,,Mostly Cloudy,100,2013-04-08 23:53:00
7:19 PM,64.4,55.4,73,29.53,7.0,East,18.4,-,N/A,,Mostly Cloudy,80,2013-04-09 00:19:00
7:53 PM,63.0,57.0,81,29.55,8.0,ENE,15.0,-,N/A,,Overcast,70,2013-04-09 00:53:00
8:46 PM,62.6,57.2,82,29.56,7.0,SSE,10.4,16.1,N/A,Thunderstorm,Overcast,150,2013-04-09 01:46:00
8:53 PM,62.1,57.0,84,29.55,7.0,East,13.8,21.9,N/A,Thunderstorm,Overcast,100,2013-04-09 01:53:00
9:11 PM,62.6,57.2,82,29.54,7.0,East,13.8,23.0,N/A,Thunderstorm,Mostly Cloudy,80,2013-04-09 02:11:00
9:17 PM,62.6,57.2,82,29.53,7.0,East,16.1,-,N/A,,Overcast,90,2013-04-09 02:17:00
9:53 PM,62.1,55.9,80,29.50,8.0,East,10.4,-,N/A,Thunderstorm,Thunderstorm,80,2013-04-09 02:53:00
10:44 PM,55.4,50.0,82,29.52,9.0,NE,25.3,32.2,N/A,Thunderstorm,Mostly Cloudy,50,2013-04-09 03:44:00
10:53 PM,57.0,50.0,77,29.50,9.0,NE,28.8,35.7,N/A,Thunderstorm,Overcast,40,2013-04-09 03:53:00
11:13 PM,53.6,44.6,72,29.47,6.0,NE,39.1,48.3,N/A,,Haze,40,2013-04-09 04:13:00
11:28 PM,50.0,42.8,76,29.39,3.0,NE,44.9,55.2,N/A,Thunderstorm,Haze,50,2013-04-09 04:28:00
11:32 PM,50.0,42.8,76,29.43,1.8,NE,41.4,55.2,N/A,Thunderstorm,Haze,50,2013-04-09 04:32:00
11:42 PM,48.2,42.8,82,29.57,3.0,North,20.7,49.5,N/A,Thunderstorm,Unknown,360,2013-04-09 04:42:00
11:53 PM,52.0,44.1,74,29.48,3.0,North,25.3,46.0,0.01,Rain-Thunderstorm,Thunderstorms and Rain,360,2013-04-09 04:53:00
11:59 PM,50.0,44.6,82,29.50,2.5,ENE,19.6,35.7,0.02,Rain-Thunderstorm,Heavy Thunderstorms and Rain,60,2013-04-09 04:59:00